Date String (YYYY-MM-DD hh:mm:ss) UTC,Instrument flags,absolute air pressure of the measurement (hPa),sample flow rate (lpm),inlet stack bypass flow (lpm),air temperature of the measurement (°C),ambient temperature measured by the external sensor (°C),aerosol sample conditioner tube jacket temperature (°C),OPC LED temperature (°C),internal box temperature (°C),relative humidity of the measurement (%),span deviation,mass concentration of particles derived from Lorenz-Mie calculation of OPC scattering (μg/m³),mass concentration of particles derived from Lorenz-Mie calculation of OPC scattering (μg/m³),mass concentration of particles derived from Lorenz-Mie calculation of OPC scattering (μg/m³)
DateTimeUTC,F1_M11,P_M11,Q1_M11,Q2_M11,T1_M11,T2_M11,T3_M11,T4_M11,T5_M11,U1_M11,ZSPAN_M11,X0_M11,X2_M11,X1_M11
2024-04-09 10:00:00,SystemResetWarning,0829.1,5.00,000.00,021.1,020.5,000.0,029.7,022.9,013.4,0000.0,0011.63,0003.22,0002.25
2024-04-09 10:01:00,SystemResetWarning,0829.1,5.00,000.00,021.1,020.5,000.0,029.6,022.9,013.3,0000.0,0011.10,0003.21,0002.27
2024-04-09 10:02:00,SystemResetWarning,0829.0,5.00,000.00,021.1,020.4,000.0,029.6,022.9,013.3,0000.0,0010.67,0003.21,0002.28
2024-04-09 10:03:00,SystemResetWarning,0829.0,5.01,000.00,021.1,020.4,000.0,029.6,022.8,013.3,0000.0,0011.15,0003.21,0002.30
2024-04-09 10:04:00,SystemResetWarning,0829.0,5.00,000.00,021.1,020.4,000.0,029.6,022.8,013.5,0000.0,0011.25,0003.20,0002.31
2024-04-09 10:05:00,SystemResetWarning,0829.0,5.00,000.00,021.1,020.4,000.0,029.6,022.8,013.3,0000.0,0012.05,0003.20,0002.31
2024-04-09 10:06:00,SystemResetWarning,0829.0,5.00,000.00,021.1,020.4,000.0,029.6,022.8,013.2,0000.0,0011.91,0003.27,0002.32
2024-04-09 10:07:00,SystemResetWarning,0828.9,4.99,000.00,021.0,020.4,000.0,029.6,022.8,013.3,0000.0,0011.50,0003.30,0002.32
2024-04-09 10:08:00,SystemResetWarning,0828.9,5.00,000.00,021.0,020.4,000.0,029.6,022.8,013.3,0000.0,0011.24,0003.31,0002.32
2024-04-09 10:09:00,SystemResetWarning,0828.9,5.01,000.00,021.0,020.4,000.0,029.6,022.8,013.3,0000.0,0011.11,0003.32,0002.33
2024-04-09 10:10:00,SystemResetWarning,0829.0,5.01,000.00,021.0,020.4,000.0,029.6,022.7,013.3,0000.0,0010.89,0003.35,0002.34
2024-04-09 10:11:00,SystemResetWarning,0829.0,5.00,000.00,021.0,020.4,000.0,029.6,022.8,013.3,0000.0,0010.56,0003.40,0002.35
2024-04-09 10:12:00,SystemResetWarning,0829.0,5.00,000.00,021.0,020.4,000.0,029.5,022.8,013.3,0000.0,0011.44,0003.38,0002.34
2024-04-09 10:13:00,SystemResetWarning,0829.0,4.99,000.00,021.0,020.3,000.0,029.5,022.7,013.3,0000.0,0011.92,0003.38,0002.35
2024-04-09 10:14:00,SystemResetWarning,0828.9,5.00,000.00,021.0,020.3,000.0,029.5,022.7,013.3,0000.0,0011.81,0003.39,0002.37
2024-04-09 10:15:00,SystemResetWarning,0828.9,5.00,000.00,021.0,020.3,000.0,029.5,022.7,013.3,0000.0,0011.44,0003.39,0002.37
2024-04-09 10:16:00,SystemResetWarning,0828.8,5.00,000.00,021.0,020.3,000.0,029.5,022.7,013.3,0000.0,0011.46,0003.45,0002.39
2024-04-09 10:17:00,SystemResetWarning,0828.8,5.01,000.00,021.0,020.3,000.0,029.5,022.7,013.3,0000.0,0010.95,0003.45,0002.40
2024-04-09 10:18:00,SystemResetWarning,0828.8,5.00,000.00,021.0,020.3,000.0,029.5,022.7,013.3,0000.0,0010.12,0003.44,0002.42
2024-04-09 10:19:00,SystemResetWarning,0828.8,4.99,000.00,021.0,020.3,000.0,029.5,022.7,013.4,0000.0,0010.10,0003.43,0002.42
2024-04-09 10:20:00,SystemResetWarning,0828.8,5.00,000.00,021.0,020.3,000.0,029.5,022.7,013.4,0000.0,0010.01,0003.44,0002.43
2024-04-09 10:21:00,SystemResetWarning,0828.8,4.99,000.00,021.0,020.3,000.0,029.5,022.7,013.4,0000.0,0009.93,0003.43,0002.42
2024-04-09 10:22:00,SystemResetWarning,0828.7,5.00,000.00,020.9,020.3,000.0,029.5,022.7,013.4,0000.0,0009.89,0003.38,0002.41
2024-04-09 10:23:00,SystemResetWarning,0828.8,5.01,000.00,020.9,020.3,000.0,029.5,022.6,013.4,0000.0,0009.08,0003.34,0002.41
2024-04-09 10:24:00,SystemResetWarning,0828.8,5.01,000.00,020.9,020.3,000.0,029.4,022.7,013.5,0000.0,0008.39,0003.35,0002.39
2024-04-09 10:25:00,SystemResetWarning,0828.8,5.01,000.00,020.9,020.3,000.0,029.4,022.7,013.5,0000.0,0007.92,0003.31,0002.37
2024-04-09 10:26:00,SystemResetWarning,0828.7,5.00,000.00,020.9,020.3,000.0,029.4,022.7,013.5,0000.0,0008.00,0003.32,0002.35
2024-04-09 10:27:00,SystemResetWarning,0828.7,5.00,000.00,020.9,020.2,000.0,029.4,022.7,013.5,0000.0,0007.58,0003.30,0002.35
2024-04-09 10:28:00,SystemResetWarning,0828.7,4.99,000.00,020.9,020.2,000.0,029.4,022.6,013.5,0000.0,0008.09,0003.28,0002.35
2024-04-09 10:29:00,SystemResetWarning,0828.7,5.00,000.00,020.9,020.2,000.0,029.4,022.6,013.6,0000.0,0008.45,0003.33,0002.34
2024-04-09 10:30:00,SystemResetWarning,0828.7,5.01,000.00,020.9,020.2,000.0,029.4,022.6,013.7,0000.0,0008.26,0003.32,0002.33
2024-04-09 10:31:00,SystemResetWarning,0828.7,5.01,000.00,020.9,020.2,000.0,029.4,022.6,014.0,0000.0,0007.79,0003.31,0002.31
2024-04-09 10:32:00,SystemResetWarning,0828.7,5.00,000.00,020.9,020.2,000.0,029.4,022.6,014.4,0000.0,0008.12,0003.32,0002.31
2024-04-09 10:33:00,SystemResetWarning,0828.7,5.00,000.00,020.9,020.2,000.0,029.4,022.6,014.5,0000.0,0008.85,0003.30,0002.29
2024-04-09 10:34:00,SystemResetWarning,0828.7,5.01,000.00,020.8,020.2,000.0,029.4,022.6,015.0,0000.0,0009.29,0003.32,0002.26
2024-04-09 10:35:00,SystemResetWarning,0828.7,5.00,000.00,020.8,020.2,000.0,029.4,022.6,015.0,0000.0,0009.71,0003.28,0002.22
2024-04-09 10:36:00,SystemResetWarning,0828.8,4.99,000.00,020.8,020.2,000.0,029.3,022.6,014.8,0000.0,0010.73,0003.27,0002.19
2024-04-09 10:37:00,SystemResetWarning,0828.8,5.00,000.00,020.8,020.2,000.0,029.3,022.6,014.3,0000.0,0011.65,0003.22,0002.17
2024-04-09 10:38:00,SystemResetWarning,0828.7,5.00,000.00,020.8,020.2,000.0,029.3,022.6,014.2,0000.0,0011.56,0003.18,0002.15
2024-04-09 10:39:00,SystemResetWarning,0828.7,4.99,000.00,020.8,020.2,000.0,029.3,022.6,013.9,0000.0,0011.11,0003.15,0002.15
2024-04-09 10:40:00,SystemResetWarning,0828.7,5.00,000.00,020.8,020.1,000.0,029.3,022.5,013.7,0000.0,0010.49,0003.04,0002.14
2024-04-09 10:41:00,SystemResetWarning,0828.6,4.99,000.00,020.8,020.1,000.0,029.3,022.5,013.7,0000.0,0010.51,0003.02,0002.13
2024-04-09 10:42:00,SystemResetWarning,0828.7,5.00,000.00,020.8,020.1,000.0,029.3,022.5,013.7,0000.0,0010.49,0003.00,0002.13
2024-04-09 10:43:00,SystemResetWarning,0828.6,5.00,000.00,020.8,020.1,000.0,029.3,022.5,013.8,0000.0,0010.35,0002.98,0002.14
2024-04-09 10:44:00,SystemResetWarning,0828.6,5.00,000.00,020.8,020.1,000.0,029.3,022.5,013.8,0000.0,0010.50,0003.01,0002.15
2024-04-09 10:45:00,SystemResetWarning,0828.6,5.00,000.00,020.8,020.1,000.0,029.3,022.5,013.8,0000.0,0010.21,0003.04,0002.17
2024-04-09 10:46:00,SystemResetWarning,0828.6,5.00,000.00,020.7,020.1,000.0,029.3,022.5,013.8,0000.0,0009.76,0003.07,0002.19
2024-04-09 10:47:00,SystemResetWarning,0828.6,5.01,000.00,020.7,020.1,000.0,029.3,022.5,013.9,0000.0,0009.33,0003.12,0002.23
2024-04-09 10:48:00,SystemResetWarning,0828.6,5.01,000.00,020.7,020.1,000.0,029.2,022.5,013.9,0000.0,0008.87,0003.14,0002.24
2024-04-09 10:49:00,SystemResetWarning,0828.6,5.00,000.00,020.7,020.1,000.0,029.2,022.5,013.9,0000.0,0008.89,0003.17,0002.25
2024-04-09 10:50:00,SystemResetWarning,0828.6,4.99,000.00,020.7,020.1,000.0,029.2,022.4,014.0,0000.0,0009.52,0003.21,0002.25
2024-04-09 10:51:00,SystemResetWarning,0828.6,5.00,000.00,020.7,020.0,000.0,029.2,022.4,013.9,0000.0,0010.33,0003.22,0002.23
2024-04-09 10:52:00,SystemResetWarning,0828.6,5.00,000.00,020.7,020.0,000.0,029.2,022.4,013.8,0000.0,0010.34,0003.23,0002.23
2024-04-09 10:53:00,SystemResetWarning,0828.6,5.00,000.00,020.7,020.0,000.0,029.2,022.4,013.8,0000.0,0010.59,0003.19,0002.22
2024-04-09 10:54:00,SystemResetWarning,0828.6,5.00,000.00,020.7,020.0,000.0,029.2,022.4,013.8,0000.0,0010.96,0003.18,0002.21
2024-04-09 10:55:00,SystemResetWarning,0828.6,5.00,000.00,020.7,020.0,000.0,029.2,022.4,013.8,0000.0,0010.33,0003.18,0002.20
2024-04-09 10:56:00,SystemResetWarning,0828.6,4.99,000.00,020.7,020.0,000.0,029.2,022.4,013.8,0000.0,0010.15,0003.18,0002.20
2024-04-09 10:57:00,SystemResetWarning,0828.5,5.00,000.00,020.6,020.0,000.0,029.2,022.4,013.8,0000.0,0010.38,0003.18,0002.19
2024-04-09 10:58:00,SystemResetWarning,0828.6,5.01,000.00,020.6,020.0,000.0,029.2,022.4,013.9,0000.0,0010.25,0003.14,0002.19
2024-04-09 10:59:00,SystemResetWarning,0828.6,5.01,000.00,020.6,020.0,000.0,029.1,022.3,014.0,0000.0,0010.50,0003.13,0002.16
